Year,Month,Day,Hour,Minute,Value (Times are PST for temperature in C)
2016,08,26,00,00,23.70
2016,08,26,00,01,23.70
2016,08,26,00,02,23.70
2016,08,26,00,03,23.70
2016,08,26,00,04,23.70
2016,08,26,00,05,23.70
2016,08,26,00,06,23.70
2016,08,26,00,07,23.80
2016,08,26,00,08,23.80
2016,08,26,00,09,23.80
2016,08,26,00,10,23.80
2016,08,26,00,11,23.80
2016,08,26,00,12,23.80
2016,08,26,00,13,23.80
2016,08,26,00,14,23.80
2016,08,26,00,15,23.80
2016,08,26,00,16,23.70
2016,08,26,00,17,23.70
2016,08,26,00,18,23.60
2016,08,26,00,19,23.60
2016,08,26,00,20,23.50
2016,08,26,00,21,23.50
2016,08,26,00,22,23.40
2016,08,26,00,23,23.30
2016,08,26,00,24,23.20
2016,08,26,00,25,23.20
2016,08,26,00,26,23.10
2016,08,26,00,27,23.00
2016,08,26,00,28,23.00
2016,08,26,00,29,22.90
2016,08,26,00,30,22.90
2016,08,26,00,31,22.80
2016,08,26,00,32,22.80
2016,08,26,00,33,22.80
2016,08,26,00,34,22.80
2016,08,26,00,35,22.70
2016,08,26,00,36,22.70
2016,08,26,00,37,22.70
2016,08,26,00,38,22.70
2016,08,26,00,39,22.70
2016,08,26,00,40,22.70
2016,08,26,00,41,22.70
2016,08,26,00,42,22.80
2016,08,26,00,43,22.80
2016,08,26,00,44,22.80
2016,08,26,00,45,22.80
2016,08,26,00,46,22.80
2016,08,26,00,47,22.80
2016,08,26,00,48,22.90
2016,08,26,00,49,22.90
2016,08,26,00,50,22.90
2016,08,26,00,51,23.00
2016,08,26,00,52,23.00
2016,08,26,00,53,23.10
2016,08,26,00,54,23.20
2016,08,26,00,55,23.30
2016,08,26,00,56,23.40
2016,08,26,00,57,23.50
2016,08,26,00,58,23.70
2016,08,26,00,59,23.80
2016,08,26,01,00,23.90
2016,08,26,01,01,24.10
2016,08,26,01,02,24.30
2016,08,26,01,03,24.40
2016,08,26,01,04,24.50
2016,08,26,01,05,24.70
2016,08,26,01,06,24.90
2016,08,26,01,07,25.00
2016,08,26,01,08,25.10
2016,08,26,01,09,25.10
2016,08,26,01,10,25.20
2016,08,26,01,11,25.20
2016,08,26,01,12,25.20
2016,08,26,01,13,25.20
2016,08,26,01,14,25.20
2016,08,26,01,15,25.20
2016,08,26,01,16,25.20
2016,08,26,01,17,25.20
2016,08,26,01,18,25.20
2016,08,26,01,19,25.20
2016,08,26,01,20,25.10
2016,08,26,01,21,25.10
2016,08,26,01,22,25.00
2016,08,26,01,23,25.00
2016,08,26,01,24,24.90
2016,08,26,01,25,24.80
2016,08,26,01,26,24.70
2016,08,26,01,27,24.60
2016,08,26,01,28,24.50
2016,08,26,01,29,24.40
2016,08,26,01,30,24.40
2016,08,26,01,31,24.40
2016,08,26,01,32,24.30
2016,08,26,01,33,24.30
2016,08,26,01,34,24.30
2016,08,26,01,35,24.30
2016,08,26,01,36,24.30
2016,08,26,01,37,24.30
2016,08,26,01,38,24.30
2016,08,26,01,39,24.30
2016,08,26,01,40,24.40
2016,08,26,01,41,24.40
2016,08,26,01,42,24.40
2016,08,26,01,43,24.40
2016,08,26,01,44,24.40
2016,08,26,01,45,24.50
2016,08,26,01,46,24.50
2016,08,26,01,47,24.50
2016,08,26,01,48,24.60
2016,08,26,01,49,24.60
2016,08,26,01,50,24.60
2016,08,26,01,51,24.60
2016,08,26,01,52,24.60
2016,08,26,01,53,24.60
2016,08,26,01,54,24.60
2016,08,26,01,55,24.60
2016,08,26,01,56,24.60
2016,08,26,01,57,24.60
2016,08,26,01,58,24.60
2016,08,26,01,59,24.70
2016,08,26,02,00,24.70
2016,08,26,02,01,24.70
2016,08,26,02,02,24.70
2016,08,26,02,03,24.70
2016,08,26,02,04,24.70
2016,08,26,02,05,24.70
2016,08,26,02,06,24.70
2016,08,26,02,07,24.70
2016,08,26,02,08,24.70
2016,08,26,02,09,24.70
2016,08,26,02,10,24.70
2016,08,26,02,11,24.70
2016,08,26,02,12,24.70
2016,08,26,02,13,24.70
2016,08,26,02,14,24.60
2016,08,26,02,15,24.60
2016,08,26,02,16,24.60
2016,08,26,02,17,24.60
2016,08,26,02,18,24.60
2016,08,26,02,19,24.60
2016,08,26,02,20,24.70
2016,08,26,02,21,24.70
2016,08,26,02,22,24.70
2016,08,26,02,23,24.70
2016,08,26,02,24,24.70
2016,08,26,02,25,24.70
2016,08,26,02,26,24.70
2016,08,26,02,27,24.70
2016,08,26,02,28,24.70
2016,08,26,02,29,24.70
2016,08,26,02,30,24.70
2016,08,26,02,31,24.70
2016,08,26,02,32,24.70
2016,08,26,02,33,24.70
2016,08,26,02,34,24.70
2016,08,26,02,35,24.70
2016,08,26,02,36,24.60
2016,08,26,02,37,24.60
2016,08,26,02,38,24.60
2016,08,26,02,39,24.60
2016,08,26,02,40,24.50
2016,08,26,02,41,24.50
2016,08,26,02,42,24.40
2016,08,26,02,43,24.40
2016,08,26,02,44,24.40
2016,08,26,02,45,24.30
2016,08,26,02,46,24.30
2016,08,26,02,47,24.30
2016,08,26,02,48,24.30
2016,08,26,02,49,24.30
2016,08,26,02,50,24.20
2016,08,26,02,51,24.20
2016,08,26,02,52,24.20
2016,08,26,02,53,24.20
2016,08,26,02,54,24.10
2016,08,26,02,55,24.10
2016,08,26,02,56,24.00
2016,08,26,02,57,24.00
2016,08,26,02,58,23.90
2016,08,26,02,59,23.80
2016,08,26,03,00,23.80
2016,08,26,03,01,23.80
2016,08,26,03,02,23.70
2016,08,26,03,03,23.70
2016,08,26,03,04,23.70
2016,08,26,03,05,23.70
2016,08,26,03,06,23.70
2016,08,26,03,07,23.80
2016,08,26,03,08,23.80
2016,08,26,03,09,23.80
2016,08,26,03,10,23.80
2016,08,26,03,11,23.80
2016,08,26,03,12,23.80
2016,08,26,03,13,23.80
2016,08,26,03,14,23.80
2016,08,26,03,15,23.80
2016,08,26,03,16,23.80
2016,08,26,03,17,23.80
2016,08,26,03,18,23.80
2016,08,26,03,19,23.70
2016,08,26,03,20,23.70
2016,08,26,03,21,23.60
2016,08,26,03,22,23.50
2016,08,26,03,23,23.50
2016,08,26,03,24,23.40
2016,08,26,03,25,23.40
2016,08,26,03,26,23.30
2016,08,26,03,27,23.30
2016,08,26,03,28,23.20
2016,08,26,03,29,23.20
2016,08,26,03,30,23.10
2016,08,26,03,31,23.10
2016,08,26,03,32,23.00
2016,08,26,03,33,23.00
2016,08,26,03,34,22.90
2016,08,26,03,35,22.90
2016,08,26,03,36,22.90
2016,08,26,03,37,22.80
2016,08,26,03,38,22.80
2016,08,26,03,39,22.80
2016,08,26,03,40,22.80
2016,08,26,03,41,22.80
2016,08,26,03,42,22.80
2016,08,26,03,43,22.70
2016,08,26,03,44,22.70
2016,08,26,03,45,22.70
2016,08,26,03,46,22.70
2016,08,26,03,47,22.70
2016,08,26,03,48,22.80
2016,08,26,03,49,22.80
2016,08,26,03,50,22.80
2016,08,26,03,51,22.80
2016,08,26,03,52,22.80
2016,08,26,03,53,22.80
2016,08,26,03,54,22.80
2016,08,26,03,55,22.80
2016,08,26,03,56,22.90
2016,08,26,03,57,22.90
2016,08,26,03,58,22.90
2016,08,26,03,59,23.00
2016,08,26,04,00,23.00
2016,08,26,04,01,23.00
2016,08,26,04,02,23.00
2016,08,26,04,03,23.00
2016,08,26,04,04,22.90
2016,08,26,04,05,22.90
2016,08,26,04,06,22.90
2016,08,26,04,07,22.90
2016,08,26,04,08,22.90
2016,08,26,04,09,22.90
2016,08,26,04,10,22.80
2016,08,26,04,11,22.80
2016,08,26,04,12,22.80
2016,08,26,04,13,22.80
2016,08,26,04,14,22.80
2016,08,26,04,15,22.80
2016,08,26,04,16,22.80
2016,08,26,04,17,22.80
2016,08,26,04,18,22.70
2016,08,26,04,19,22.70
2016,08,26,04,20,22.70
2016,08,26,04,21,22.70
2016,08,26,04,22,22.70
2016,08,26,04,23,22.80
2016,08,26,04,24,22.80
2016,08,26,04,25,22.80
2016,08,26,04,26,22.80
2016,08,26,04,27,22.80
2016,08,26,04,28,22.80
2016,08,26,04,29,22.70
2016,08,26,04,30,22.70
2016,08,26,04,31,22.70
2016,08,26,04,32,22.60
2016,08,26,04,33,22.60
2016,08,26,04,34,22.60
2016,08,26,04,35,22.60
2016,08,26,04,36,22.50
2016,08,26,04,37,22.50
2016,08,26,04,38,22.50
2016,08,26,04,39,22.50
2016,08,26,04,40,22.50
2016,08,26,04,41,22.50
2016,08,26,04,42,22.50
2016,08,26,04,43,22.50
2016,08,26,04,44,22.50
2016,08,26,04,45,22.50
2016,08,26,04,46,22.50
2016,08,26,04,47,22.50
2016,08,26,04,48,22.40
2016,08,26,04,49,22.40
2016,08,26,04,50,22.40
2016,08,26,04,51,22.30
2016,08,26,04,52,22.30
2016,08,26,04,53,22.30
2016,08,26,04,54,22.30
2016,08,26,04,55,22.30
2016,08,26,04,56,22.30
2016,08,26,04,57,22.30
2016,08,26,04,58,22.30
2016,08,26,04,59,22.30
2016,08,26,05,00,22.20
2016,08,26,05,01,22.20
2016,08,26,05,02,22.20
2016,08,26,05,03,22.20
2016,08,26,05,04,22.20
2016,08,26,05,05,22.20
2016,08,26,05,06,22.10
2016,08,26,05,07,22.10
2016,08,26,05,08,22.10
2016,08,26,05,09,22.10
2016,08,26,05,10,22.00
2016,08,26,05,11,22.00
2016,08,26,05,12,21.90
2016,08,26,05,13,21.90
2016,08,26,05,14,21.80
2016,08,26,05,15,21.80
2016,08,26,05,16,21.80
2016,08,26,05,17,21.80
2016,08,26,05,18,21.80
2016,08,26,05,19,21.80
2016,08,26,05,20,21.70
2016,08,26,05,21,21.70
2016,08,26,05,22,21.60
2016,08,26,05,23,21.50
2016,08,26,05,24,21.50
2016,08,26,05,25,21.40
2016,08,26,05,26,21.40
2016,08,26,05,27,21.30
2016,08,26,05,28,21.30
2016,08,26,05,29,21.30
2016,08,26,05,30,21.30
2016,08,26,05,31,21.30
2016,08,26,05,32,21.20
2016,08,26,05,33,21.20
2016,08,26,05,34,21.20
2016,08,26,05,35,21.20
2016,08,26,05,36,21.10
2016,08,26,05,37,21.10
2016,08,26,05,38,21.10
2016,08,26,05,39,21.10
2016,08,26,05,40,21.00
2016,08,26,05,41,21.00
2016,08,26,05,42,20.90
2016,08,26,05,43,20.90
2016,08,26,05,44,20.90
2016,08,26,05,45,20.80
2016,08,26,05,46,20.80
2016,08,26,05,47,20.80
2016,08,26,05,48,20.80
2016,08,26,05,49,20.80
2016,08,26,05,50,20.70
2016,08,26,05,51,20.70
2016,08,26,05,52,20.60
2016,08,26,05,53,20.60
2016,08,26,05,54,20.60
2016,08,26,05,55,20.50
2016,08,26,05,56,20.50
2016,08,26,05,57,20.50
2016,08,26,05,58,20.50
2016,08,26,05,59,20.50
2016,08,26,06,00,20.50
2016,08,26,06,01,20.50
2016,08,26,06,02,20.50
2016,08,26,06,03,20.50
2016,08,26,06,04,20.50
2016,08,26,06,05,20.50
2016,08,26,06,06,20.50
2016,08,26,06,07,20.50
2016,08,26,06,08,20.50
2016,08,26,06,09,20.50
2016,08,26,06,10,20.40
2016,08,26,06,11,20.40
2016,08,26,06,12,20.40
2016,08,26,06,13,20.40
2016,08,26,06,14,20.40
2016,08,26,06,15,20.40
2016,08,26,06,16,20.40
2016,08,26,06,17,20.40
2016,08,26,06,18,20.40
2016,08,26,06,19,20.40
2016,08,26,06,20,20.40
2016,08,26,06,21,20.40
2016,08,26,06,22,20.40
2016,08,26,06,23,20.40
2016,08,26,06,24,20.40
2016,08,26,06,25,20.40
2016,08,26,06,26,20.50
2016,08,26,06,27,20.50
2016,08,26,06,28,20.50
2016,08,26,06,29,20.60
2016,08,26,06,30,20.60
2016,08,26,06,31,20.60
2016,08,26,06,32,20.60
2016,08,26,06,33,20.60
2016,08,26,06,34,20.60
2016,08,26,06,35,20.50
2016,08,26,06,36,20.50
2016,08,26,06,37,20.50
2016,08,26,06,38,20.40
2016,08,26,06,39,20.40
2016,08,26,06,40,20.40
2016,08,26,06,41,20.40
2016,08,26,06,42,20.40
2016,08,26,06,43,20.40
2016,08,26,06,44,20.40
2016,08,26,06,45,20.30
2016,08,26,06,46,20.30
2016,08,26,06,47,20.30
2016,08,26,06,48,20.30
2016,08,26,06,49,20.30
2016,08,26,06,50,20.30
2016,08,26,06,51,20.30
2016,08,26,06,52,20.30
2016,08,26,06,53,20.30
2016,08,26,06,54,20.20
2016,08,26,06,55,20.20
2016,08,26,06,56,20.20
2016,08,26,06,57,20.20
2016,08,26,06,58,20.20
2016,08,26,06,59,20.20
2016,08,26,07,00,20.20
2016,08,26,07,01,20.20
2016,08,26,07,02,20.20
2016,08,26,07,03,20.20
2016,08,26,07,04,20.10
2016,08,26,07,05,20.10
2016,08,26,07,06,20.10
2016,08,26,07,07,20.10
2016,08,26,07,08,20.10
2016,08,26,07,09,20.10
2016,08,26,07,10,20.00
2016,08,26,07,11,20.00
2016,08,26,07,12,20.00
2016,08,26,07,13,20.00
2016,08,26,07,14,20.00
2016,08,26,07,15,19.90
2016,08,26,07,16,19.90
2016,08,26,07,17,19.90
2016,08,26,07,18,19.90
2016,08,26,07,19,19.90
2016,08,26,07,20,19.90
2016,08,26,07,21,19.90
2016,08,26,07,22,20.00
2016,08,26,07,23,20.00
2016,08,26,07,24,20.00
2016,08,26,07,25,20.00
2016,08,26,07,26,20.00
2016,08,26,07,27,20.00
2016,08,26,07,28,20.00
2016,08,26,07,29,20.00
2016,08,26,07,30,20.10
2016,08,26,07,31,20.10
2016,08,26,07,32,20.10
2016,08,26,07,33,20.10
2016,08,26,07,34,20.20
2016,08,26,07,35,20.20
2016,08,26,07,36,20.20
2016,08,26,07,37,20.20
2016,08,26,07,38,20.20
2016,08,26,07,39,20.20
2016,08,26,07,40,20.20
2016,08,26,07,41,20.10
2016,08,26,07,42,20.10
2016,08,26,07,43,20.10
2016,08,26,07,44,20.10
2016,08,26,07,45,20.00
2016,08,26,07,46,20.00
2016,08,26,07,47,20.00
2016,08,26,07,48,19.90
2016,08,26,07,49,19.90
2016,08,26,07,50,19.90
2016,08,26,07,51,19.90
2016,08,26,07,52,19.90
2016,08,26,07,53,20.00
2016,08,26,07,54,20.00
2016,08,26,07,55,20.00
2016,08,26,07,56,20.10
2016,08,26,07,57,20.10
2016,08,26,07,58,20.20
2016,08,26,07,59,20.20
2016,08,26,08,00,20.30
2016,08,26,08,01,20.30
2016,08,26,08,02,20.40
2016,08,26,08,03,20.50
2016,08,26,08,04,20.60
2016,08,26,08,05,20.70
2016,08,26,08,06,20.70
2016,08,26,08,07,20.80
2016,08,26,08,08,20.90
2016,08,26,08,09,20.90
2016,08,26,08,10,21.00
2016,08,26,08,11,21.10
2016,08,26,08,12,21.10
2016,08,26,08,13,21.20
2016,08,26,08,14,21.30
2016,08,26,08,15,21.30
2016,08,26,08,16,21.40
2016,08,26,08,17,21.50
2016,08,26,08,18,21.50
2016,08,26,08,19,21.60
2016,08,26,08,20,21.70
2016,08,26,08,21,21.70
2016,08,26,08,22,21.80
2016,08,26,08,23,21.80
2016,08,26,08,24,21.80
2016,08,26,08,25,21.90
2016,08,26,08,26,21.90
2016,08,26,08,27,22.00
2016,08,26,08,28,22.00
2016,08,26,08,29,22.00
2016,08,26,08,30,22.00
2016,08,26,08,31,22.10
2016,08,26,08,32,22.10
2016,08,26,08,33,22.10
2016,08,26,08,34,22.10
2016,08,26,08,35,22.10
2016,08,26,08,36,22.20
2016,08,26,08,37,22.20
2016,08,26,08,38,22.20
2016,08,26,08,39,22.20
2016,08,26,08,40,22.30
2016,08,26,08,41,22.30
2016,08,26,08,42,22.30
2016,08,26,08,43,22.30
2016,08,26,08,44,22.20
2016,08,26,08,45,22.20
2016,08,26,08,46,22.20
2016,08,26,08,47,22.20
2016,08,26,08,48,22.10
2016,08,26,08,49,22.10
2016,08,26,08,50,22.10
2016,08,26,08,51,22.10
2016,08,26,08,52,22.10
2016,08,26,08,53,22.10
2016,08,26,08,54,22.10
2016,08,26,08,55,22.10
2016,08,26,08,56,22.10
2016,08,26,08,57,22.00
2016,08,26,08,58,22.00
2016,08,26,08,59,22.00
2016,08,26,09,00,22.00
2016,08,26,09,01,21.90
2016,08,26,09,02,21.80
2016,08,26,09,03,21.80
2016,08,26,09,04,21.80
2016,08,26,09,05,21.80
2016,08,26,09,06,21.80
2016,08,26,09,07,21.90
2016,08,26,09,08,21.90
2016,08,26,09,09,21.90
2016,08,26,09,10,21.90
2016,08,26,09,11,21.90
2016,08,26,09,12,21.80
2016,08,26,09,13,21.80
2016,08,26,09,14,21.80
2016,08,26,09,15,21.70
2016,08,26,09,16,21.60
2016,08,26,09,17,21.60
2016,08,26,09,18,21.50
2016,08,26,09,19,21.40
2016,08,26,09,20,21.30
2016,08,26,09,21,21.20
2016,08,26,09,22,21.20
2016,08,26,09,23,21.10
2016,08,26,09,24,21.10
2016,08,26,09,25,21.00
2016,08,26,09,26,21.00
2016,08,26,09,27,20.90
2016,08,26,09,28,20.90
2016,08,26,09,29,20.90
2016,08,26,09,30,20.80
2016,08,26,09,31,20.80
2016,08,26,09,32,20.80
2016,08,26,09,33,20.80
2016,08,26,09,34,20.80
2016,08,26,09,35,20.70
2016,08,26,09,36,20.70
2016,08,26,09,37,20.70
2016,08,26,09,38,20.70
2016,08,26,09,39,20.70
2016,08,26,09,40,20.70
2016,08,26,09,41,20.70
2016,08,26,09,42,20.70
2016,08,26,09,43,20.70
2016,08,26,09,44,20.80
2016,08,26,09,45,20.70
2016,08,26,09,46,20.70
2016,08,26,09,47,20.70
2016,08,26,09,48,20.80
2016,08,26,09,49,20.80
2016,08,26,09,50,20.80
2016,08,26,09,51,20.80
2016,08,26,09,52,20.80
2016,08,26,09,53,20.80
2016,08,26,09,54,20.80
2016,08,26,09,55,20.80
2016,08,26,09,56,20.80
2016,08,26,09,57,20.80
2016,08,26,09,58,20.90
2016,08,26,09,59,20.90
2016,08,26,10,00,20.90
2016,08,26,10,01,20.90
2016,08,26,10,02,20.80
2016,08,26,10,03,20.80
2016,08,26,10,04,20.80
2016,08,26,10,05,20.80
2016,08,26,10,06,20.80
2016,08,26,10,07,20.80
2016,08,26,10,08,20.80
2016,08,26,10,09,20.80
2016,08,26,10,10,20.90
2016,08,26,10,11,20.90
2016,08,26,10,12,20.90
2016,08,26,10,13,20.90
2016,08,26,10,14,20.90
2016,08,26,10,15,20.90
2016,08,26,10,16,21.00
2016,08,26,10,17,21.00
2016,08,26,10,18,21.10
2016,08,26,10,19,21.10
2016,08,26,10,20,21.10
2016,08,26,10,21,21.10
2016,08,26,10,22,21.10
2016,08,26,10,23,21.00
2016,08,26,10,24,21.00
2016,08,26,10,25,21.00
2016,08,26,10,26,21.10
2016,08,26,10,27,21.10
2016,08,26,10,28,21.10
2016,08,26,10,29,21.10
2016,08,26,10,30,21.10
2016,08,26,10,31,21.10
2016,08,26,10,32,21.10
2016,08,26,10,33,21.00
2016,08,26,10,34,21.00
2016,08,26,10,35,21.00
2016,08,26,10,36,21.10
2016,08,26,10,37,21.10
2016,08,26,10,38,21.20
2016,08,26,10,39,21.20
2016,08,26,10,40,21.20
2016,08,26,10,41,21.20
2016,08,26,10,42,21.20
2016,08,26,10,43,21.10
2016,08,26,10,44,21.10
2016,08,26,10,45,21.10
2016,08,26,10,46,21.10
2016,08,26,10,47,21.20
2016,08,26,10,48,21.20
2016,08,26,10,49,21.20
2016,08,26,10,50,21.30
2016,08,26,10,51,21.40
2016,08,26,10,52,21.50
2016,08,26,10,53,21.60
2016,08,26,10,54,21.70
2016,08,26,10,55,21.70
2016,08,26,10,56,21.70
2016,08,26,10,57,21.70
2016,08,26,10,58,21.70
2016,08,26,10,59,21.70
2016,08,26,11,00,21.70
2016,08,26,11,01,21.80
2016,08,26,11,02,21.80
2016,08,26,11,03,21.80
2016,08,26,11,04,21.80
2016,08,26,11,05,21.80
2016,08,26,11,06,21.80
2016,08,26,11,07,21.90
2016,08,26,11,08,22.00
2016,08,26,11,09,22.00
2016,08,26,11,10,22.10
2016,08,26,11,11,22.10
2016,08,26,11,12,22.20
2016,08,26,11,13,22.20
2016,08,26,11,14,22.20
2016,08,26,11,15,22.10
2016,08,26,11,16,22.10
2016,08,26,11,17,22.10
2016,08,26,11,18,22.10
2016,08,26,11,19,22.20
2016,08,26,11,20,22.20
2016,08,26,11,21,22.10
2016,08,26,11,22,22.10
2016,08,26,11,23,22.10
2016,08,26,11,24,22.10
2016,08,26,11,25,22.10
2016,08,26,11,26,22.10
2016,08,26,11,27,22.00
2016,08,26,11,28,21.90
2016,08,26,11,29,21.90
2016,08,26,11,30,21.90
2016,08,26,11,31,21.90
2016,08,26,11,32,22.00
2016,08,26,11,33,22.00
2016,08,26,11,34,22.00
2016,08,26,11,35,22.00
2016,08,26,11,36,21.90
2016,08,26,11,37,21.90
2016,08,26,11,38,21.90
2016,08,26,11,39,21.80
2016,08,26,11,40,21.80
2016,08,26,11,41,21.80
2016,08,26,11,42,21.80
2016,08,26,11,43,21.80
2016,08,26,11,44,21.80
2016,08,26,11,45,21.80
2016,08,26,11,46,21.80
2016,08,26,11,47,21.80
2016,08,26,11,48,21.70
2016,08,26,11,49,21.70
2016,08,26,11,50,21.70
2016,08,26,11,51,21.70
2016,08,26,11,52,21.70
2016,08,26,11,53,21.70
2016,08,26,11,54,21.70
2016,08,26,11,55,21.70
2016,08,26,11,56,21.70
2016,08,26,11,57,21.80
2016,08,26,11,58,21.80
2016,08,26,11,59,21.80
2016,08,26,12,00,21.90
2016,08,26,12,01,22.10
2016,08,26,12,02,22.20
2016,08,26,12,03,22.30
2016,08,26,12,04,22.30
2016,08,26,12,05,22.40
2016,08,26,12,06,22.40
2016,08,26,12,07,22.50
2016,08,26,12,08,22.50
2016,08,26,12,09,22.50
2016,08,26,12,10,22.50
2016,08,26,12,11,22.40
2016,08,26,12,12,22.40
2016,08,26,12,13,22.50
2016,08,26,12,14,22.50
2016,08,26,12,15,22.70
2016,08,26,12,16,22.70
2016,08,26,12,17,22.70
2016,08,26,12,18,22.70
2016,08,26,12,19,22.80
2016,08,26,12,20,22.80
2016,08,26,12,21,22.80
2016,08,26,12,22,22.80
2016,08,26,12,23,22.90
2016,08,26,12,24,22.90
2016,08,26,12,25,23.00
2016,08,26,12,26,23.10
2016,08,26,12,27,23.10
2016,08,26,12,28,23.20
2016,08,26,12,29,23.30
2016,08,26,12,30,23.30
2016,08,26,12,31,23.40
2016,08,26,12,32,23.50
2016,08,26,12,33,23.50
2016,08,26,12,34,23.60
2016,08,26,12,35,23.60
2016,08,26,12,36,23.60
2016,08,26,12,37,23.60
2016,08,26,12,38,23.50
2016,08,26,12,39,23.40
2016,08,26,12,40,23.50
2016,08,26,12,41,23.50
2016,08,26,12,42,23.50
2016,08,26,12,43,23.40
2016,08,26,12,44,23.40
2016,08,26,12,45,23.30
2016,08,26,12,46,23.20
2016,08,26,12,47,23.20
2016,08,26,12,48,23.10
2016,08,26,12,49,23.10
2016,08,26,12,50,23.10
2016,08,26,12,51,23.20
2016,08,26,12,52,23.20
2016,08,26,12,53,23.20
2016,08,26,12,54,23.10
2016,08,26,12,55,23.10
2016,08,26,12,56,23.00
2016,08,26,12,57,23.00
2016,08,26,12,58,22.90
2016,08,26,12,59,22.90
2016,08,26,13,00,22.90
2016,08,26,13,01,23.00
2016,08,26,13,02,23.10
2016,08,26,13,03,23.30
2016,08,26,13,04,23.40
2016,08,26,13,05,23.40
2016,08,26,13,06,23.50
2016,08,26,13,07,23.40
2016,08,26,13,08,23.40
2016,08,26,13,09,23.40
2016,08,26,13,10,23.40
2016,08,26,13,11,23.40
2016,08,26,13,12,23.40
2016,08,26,13,13,23.40
2016,08,26,13,14,23.40
2016,08,26,13,15,23.40
2016,08,26,13,16,23.40
2016,08,26,13,17,23.40
2016,08,26,13,18,23.40
2016,08,26,13,19,23.40
2016,08,26,13,20,23.40
2016,08,26,13,21,23.40
2016,08,26,13,22,23.40
2016,08,26,13,23,23.40
2016,08,26,13,24,23.40
2016,08,26,13,25,23.50
2016,08,26,13,26,23.50
2016,08,26,13,27,23.60
2016,08,26,13,28,23.70
2016,08,26,13,29,23.70
2016,08,26,13,30,23.80
2016,08,26,13,31,23.90
2016,08,26,13,32,23.90
2016,08,26,13,33,23.90
2016,08,26,13,34,24.00
2016,08,26,13,35,24.00
2016,08,26,13,36,24.00
2016,08,26,13,37,24.10
2016,08,26,13,38,24.10
2016,08,26,13,39,24.20
2016,08,26,13,40,24.20
2016,08,26,13,41,24.20
2016,08,26,13,42,24.30
2016,08,26,13,43,24.30
2016,08,26,13,44,24.30
2016,08,26,13,45,24.30
2016,08,26,13,46,24.30
2016,08,26,13,47,24.30
2016,08,26,13,48,24.30
2016,08,26,13,49,24.30
2016,08,26,13,50,24.30
2016,08,26,13,51,24.30
2016,08,26,13,52,24.30
2016,08,26,13,53,24.40
2016,08,26,13,54,24.40
2016,08,26,13,55,24.40
2016,08,26,13,56,24.50
2016,08,26,13,57,24.50
2016,08,26,13,58,24.60
2016,08,26,13,59,24.60
2016,08,26,14,00,24.60
2016,08,26,14,01,24.60
2016,08,26,14,02,24.60
2016,08,26,14,03,24.70
2016,08,26,14,04,24.70
2016,08,26,14,05,24.70
2016,08,26,14,06,24.70
2016,08,26,14,07,24.70
2016,08,26,14,08,24.70
2016,08,26,14,09,24.70
2016,08,26,14,10,24.70
2016,08,26,14,11,24.70
2016,08,26,14,12,24.80
2016,08,26,14,13,24.80
2016,08,26,14,14,24.80
2016,08,26,14,15,24.70
2016,08,26,14,16,24.70
2016,08,26,14,17,24.80
2016,08,26,14,18,24.80
2016,08,26,14,19,24.80
2016,08,26,14,20,24.80
2016,08,26,14,21,24.80
2016,08,26,14,22,24.90
2016,08,26,14,23,24.90
2016,08,26,14,24,25.00
2016,08,26,14,25,25.00
2016,08,26,14,26,24.90
2016,08,26,14,27,24.90
2016,08,26,14,28,24.80
2016,08,26,14,29,24.80
2016,08,26,14,30,24.70
2016,08,26,14,31,24.60
2016,08,26,14,32,24.60
2016,08,26,14,33,24.60
2016,08,26,14,34,24.60
2016,08,26,14,35,24.60
2016,08,26,14,36,24.50
2016,08,26,14,37,24.60
2016,08,26,14,38,24.60
2016,08,26,14,39,24.60
2016,08,26,14,40,24.60
2016,08,26,14,41,24.70
2016,08,26,14,42,24.70
2016,08,26,14,43,24.80
2016,08,26,14,44,24.80
2016,08,26,14,45,24.90
2016,08,26,14,46,25.00
2016,08,26,14,47,25.20
2016,08,26,14,48,25.20
2016,08,26,14,49,25.30
2016,08,26,14,50,25.30
2016,08,26,14,51,25.30
2016,08,26,14,52,25.40
2016,08,26,14,53,25.40
2016,08,26,14,54,25.40
2016,08,26,14,55,25.40
2016,08,26,14,56,25.40
2016,08,26,14,57,25.40
2016,08,26,14,58,25.40
2016,08,26,14,59,25.40
2016,08,26,15,00,25.40
2016,08,26,15,01,25.40
2016,08,26,15,02,25.40
2016,08,26,15,03,25.40
2016,08,26,15,04,25.40
2016,08,26,15,05,25.50
2016,08,26,15,06,25.50
2016,08,26,15,07,25.60
2016,08,26,15,08,25.60
2016,08,26,15,09,25.60
2016,08,26,15,10,25.70
2016,08,26,15,11,25.70
2016,08,26,15,12,25.70
2016,08,26,15,13,25.70
2016,08,26,15,14,25.70
2016,08,26,15,15,25.60
2016,08,26,15,16,25.60
2016,08,26,15,17,25.50
2016,08,26,15,18,25.50
2016,08,26,15,19,25.40
2016,08,26,15,20,25.50
2016,08,26,15,21,25.50
2016,08,26,15,22,25.50
2016,08,26,15,23,25.40
2016,08,26,15,24,25.40
2016,08,26,15,25,25.40
2016,08,26,15,26,25.30
2016,08,26,15,27,25.20
2016,08,26,15,28,25.20
2016,08,26,15,29,25.20
2016,08,26,15,30,25.20
2016,08,26,15,31,25.20
2016,08,26,15,32,25.20
2016,08,26,15,33,25.20
2016,08,26,15,34,25.20
2016,08,26,15,35,25.30
2016,08,26,15,36,25.30
2016,08,26,15,37,25.40
2016,08,26,15,38,25.50
2016,08,26,15,39,25.60
2016,08,26,15,40,25.60
2016,08,26,15,41,25.60
2016,08,26,15,42,25.70
2016,08,26,15,43,25.70
2016,08,26,15,44,25.70
2016,08,26,15,45,25.70
2016,08,26,15,46,25.60
2016,08,26,15,47,25.60
2016,08,26,15,48,25.50
2016,08,26,15,49,25.40
2016,08,26,15,50,25.40
2016,08,26,15,51,25.30
2016,08,26,15,52,25.30
2016,08,26,15,53,25.30
2016,08,26,15,54,25.30
2016,08,26,15,55,25.30
2016,08,26,15,56,25.40
2016,08,26,15,57,25.40
2016,08,26,15,58,25.50
2016,08,26,15,59,25.50
2016,08,26,16,00,25.60
2016,08,26,16,01,25.70
2016,08,26,16,02,25.80
2016,08,26,16,03,25.90
2016,08,26,16,04,25.90
2016,08,26,16,05,25.90
2016,08,26,16,06,26.00
2016,08,26,16,07,26.00
2016,08,26,16,08,26.10
2016,08,26,16,09,26.10
2016,08,26,16,10,26.20
2016,08,26,16,11,26.30
2016,08,26,16,12,26.40
2016,08,26,16,13,26.50
2016,08,26,16,14,26.60
2016,08,26,16,15,26.60
2016,08,26,16,16,26.70
2016,08,26,16,17,26.80
2016,08,26,16,18,26.80
2016,08,26,16,19,26.90
2016,08,26,16,20,26.90
2016,08,26,16,21,26.90
2016,08,26,16,22,26.80
2016,08,26,16,23,26.70
2016,08,26,16,24,26.60
2016,08,26,16,25,26.40
2016,08,26,16,26,26.30
2016,08,26,16,27,26.10
2016,08,26,16,28,25.90
2016,08,26,16,29,25.80
2016,08,26,16,30,25.70
2016,08,26,16,31,25.60
2016,08,26,16,32,25.60
2016,08,26,16,33,25.60
2016,08,26,16,34,25.60
2016,08,26,16,35,25.60
2016,08,26,16,36,25.70
2016,08,26,16,37,25.80
2016,08,26,16,38,25.90
2016,08,26,16,39,26.00
2016,08,26,16,40,26.10
2016,08,26,16,41,26.30
2016,08,26,16,42,26.40
2016,08,26,16,43,26.50
2016,08,26,16,44,26.60
2016,08,26,16,45,26.60
2016,08,26,16,46,26.60
2016,08,26,16,47,26.50
2016,08,26,16,48,26.20
2016,08,26,16,49,26.00
2016,08,26,16,50,25.80
2016,08,26,16,51,25.50
2016,08,26,16,52,25.30
2016,08,26,16,53,25.00
2016,08,26,16,54,24.70
2016,08,26,16,55,24.60
2016,08,26,16,56,24.40
2016,08,26,16,57,24.30
2016,08,26,16,58,24.20
2016,08,26,16,59,24.10
2016,08,26,17,00,24.00
2016,08,26,17,01,24.00
2016,08,26,17,02,23.90
2016,08,26,17,03,23.90
2016,08,26,17,04,23.90
2016,08,26,17,05,23.90
2016,08,26,17,06,23.90
2016,08,26,17,07,23.90
2016,08,26,17,08,23.90
2016,08,26,17,09,23.90
2016,08,26,17,10,23.80
2016,08,26,17,11,23.80
2016,08,26,17,12,23.90
2016,08,26,17,13,23.90
2016,08,26,17,14,24.00
2016,08,26,17,15,24.10
2016,08,26,17,16,24.20
2016,08,26,17,17,24.30
2016,08,26,17,18,24.40
2016,08,26,17,19,24.50